OpenBCM V1.13 (Linux)

Packet Radio Mailbox

DB0FHN

[JN59NK Nuernberg]

 Login: GUEST





  
CX2SA  > KEPS     08.07.22 06:05l 590 Lines 28833 Bytes #999 (0) @ WW
BID : ORB22188.N
Read: DJ6UX GUEST DL8SFG
Subj: 2Line Orbital Elements 22188.AMSAT
Path: DB0FHN<DB0RBS<DB0ERF<DK0WUE<PE1RRR<PI8ZTM<CX2SA
Sent: 220708/0349Z @:CX2SA.SAL.URY.SOAM #:12995 [Salto] FBB7.00e $:ORB22188.N
From: CX2SA@CX2SA.SAL.URY.SOAM
To  : KEPS@AMSAT


HR AMSAT ORBITAL ELEMENTS FOR AMATEUR SATELLITES IN NASA FORMAT
FROM WA5QGD FORT WORTH,TX July 7, 2022
BID: ORB22188.N

DECODE 2-LINE ELSETS WITH THE FOLLOWING KEY:
1 AAAAAU 00  0  0 BBBBB.BBBBBBBB  .CCCCCCCC  00000-0  00000-0 0  DDDZ
2 AAAAA EEE.EEEE FFF.FFFF GGGGGGG HHH.HHHH III.IIII JJ.JJJJJJJJKKKKKZ
KEY: A-CATALOGNUM B-EPOCHTIME C-DECAY D-ELSETNUM E-INCLINATION F-RAAN
G-ECCENTRICITY H-ARGPERIGEE I-MNANOM J-MNMOTION K-ORBITNUM Z-CHECKSUM

TO ALL RADIO AMATEURS BT

AO-07
1 07530U 74089B   22188.54104284 -.00000029  00000-0  10357-3 0  9993
2 07530 101.9048 168.4749 0012358   5.5276 108.6298 12.53655723179980
UO-11
1 14781U 84021B   22188.48131999  .00000483  00000-0  64471-4 0  9992
2 14781  97.6178 175.0032 0006849 253.3585 106.6878 14.83701924 43010
LO-19
1 20442U 90005G   22188.48850489  .00000049  00000-0  34414-4 0  9996
2 20442  98.7948 153.6570 0012827 108.1633 252.0948 14.33068186695974
HUBBLE
1 20580U 90037B   22188.33037000  .00001415  00000-0  72628-4 0  9991
2 20580  28.4709  37.0879 0002358 248.6535 282.4652 15.10634529569221
MET-2/21
1 22782U 93055A   22188.52679963  .00000033  00000-0  17005-4 0  9994
2 22782  82.5494 358.3043 0021046 292.7070 127.0173 13.83857021456780
AO-27
1 22825U 93061C   22188.52338415  .00000023  00000-0  26827-4 0  9994
2 22825  98.8853 219.9840 0008371   1.1863 358.9337 14.30178660501025
IO-26
1 22826U 93061D   22188.33190617  .00000036  00000-0  31472-4 0  9990
2 22826  98.8798 219.6665 0008652 347.6924  12.4045 14.30525058501254
FO-29
1 24278U 96046B   22188.84081893 -.00000019  00000-0  18138-4 0  9996
2 24278  98.5149 209.7276 0349447 230.3011 126.6836 13.53116819278619
NOAA-15
1 25338U 98030A   22188.83614556  .00000159  00000-0  84713-4 0  9992
2 25338  98.6425 218.1040 0009397 234.2087 125.8220 14.26147112256177
GO-32
1 25397U 98043D   22188.45746140  .00000018  00000-0  27464-4 0  9998
2 25397  98.8186 138.9795 0002290  67.3294 292.8126 14.23760163246278
ISS
1 25544U 98067A   22189.02448439  .00004564  00000-0  88331-4 0  9992
2 25544  51.6426 233.3874 0004565 345.8485  89.8776 15.49857423348416
NO-44
1 26931U 01043C   22188.58494470  .00000031  00000-0  43580-4 0  9999
2 26931  67.0518   6.4346 0007336 260.7728  99.2543 14.30713855 84285
SO-50
1 27607U 02058C   22188.84884797  .00000350  00000-0  68633-4 0  9991
2 27607  64.5536 239.4880 0079460 290.4969  68.7618 14.76153411 51591
CO-55
1 27844U 03031E   22188.54392239  .00000146  00000-0  84839-4 0  9997
2 27844  98.6777 195.9261 0010828  48.9431 311.2681 14.22462792986725
CO-57
1 27848U 03031J   22188.51317385  .00000127  00000-0  76912-4 0  9999
2 27848  98.6823 196.4114 0010866  61.8882 298.3393 14.22018562986536
RS-22
1 27939U 03042A   22188.37745741  .00000424  00000-0  83696-4 0  9994
2 27939  98.1944 329.0948 0013707 141.1651 219.0561 14.67379618  3963
NOAA-18
1 28654U 05018A   22188.74499305  .00000117  00000-0  87329-4 0  9993
2 28654  98.9484 259.1645 0013144 274.0566  85.9103 14.12750095882934
CO-58
1 28895U 05043F   22188.33451959  .00000491  00000-0  10177-3 0  9997
2 28895  98.1092 319.4091 0017971  80.2893 280.0338 14.64372677890328
Falconsat-3
1 30776U 07006E   22188.23927471  .00022846  00000-0  33552-3 0  9995
2 30776  35.4301 130.5346 0004851 264.9655  95.0524 15.54539108852661
CO-65
1 32785U 08021C   22188.51498214  .00001024  00000-0  11262-3 0  9993
2 32785  97.6582 158.7292 0013015 160.2479 199.9246 14.89642419769478
AAUSAT2
1 32788U 08021F   22188.48275462  .00002563  00000-0  22387-3 0  9999
2 32788  97.5329 173.0897 0012379  59.3164 300.9277 14.97600103771431
DO-64
1 32789U 08021G   22188.57474314  .00007032  00000-0  38872-3 0  9999
2 32789  97.3378 214.1486 0008322 248.0755 111.9593 15.14157061774974
CO-66
1 32791U 08021J   22188.15093634  .00001764  00000-0  17579-3 0  9995
2 32791  97.6122 163.8490 0014136 120.2184 240.0437 14.92743040770137
RS-30
1 32953U 08025A   22188.33836788  .00000024  00000-0  10000-3 0  9994
2 32953  82.5023 171.5704 0018432 214.1324 145.8575 12.43111515640801
PRISM
1 33493U 09002B   22188.49213635  .00002799  00000-0  23024-3 0  9998
2 33493  98.2254 176.2002 0016933 106.8730 253.4350 14.99928534731983
NOAA-19
1 33591U 09005A   22188.81944339  .00000165  00000-0  11411-3 0  9990
2 33591  99.1462 223.3828 0014787 128.5055 231.7444 14.12585028691327
SRMSAT
1 37841U 11058D   22188.51095484  .00000326  00000-0  33910-4 0  9996
2 37841  19.9712 133.6746 0011843 203.5957 314.9152 14.10759067554078
HRBE
1 37855U 11061F   22188.34907652  .00003948  00000-0  17693-3 0  9997
2 37855 101.7115 317.9567 0152353   2.7319 357.4694 15.12656919584241
RS-40
1 38735U 12041C   22188.54411851  .00000052  00000-0  30701-3 0  9995
2 38735  82.4769 252.9636 0016332 331.1455  28.8714 12.42586751451016
ZACUBE-1
1 39417U 13066B   22188.48248574  .00001263  00000-0  15974-3 0  9994
2 39417  97.6372 159.0761 0057250 340.6715  19.2327 14.82402142466091
Delfi-N3xt
1 39428U 13066N   22188.82168095  .00001088  00000-0  17466-3 0  9996
2 39428  97.8146 122.3060 0116160 212.1915 147.2164 14.69243914461709
GOMX-1
1 39430U 13066Q   22188.66913421  .00000865  00000-0  16270-3 0  9996
2 39430  97.8088  94.7139 0148933 341.8034  17.7870 14.60233526459241
LO-74
1 39440U 13066AA  22188.84685891  .00001398  00000-0  19497-3 0  9990
2 39440  97.7270 145.5469 0080253  65.7426 295.2143 14.77052715464498
AO-73
1 39444U 13066AE  22188.48448491  .00001436  00000-0  17633-3 0  9990
2 39444  97.6252 161.4860 0055768 328.6759  31.1137 14.83497271464493
SPROUT
1 39770U 14029E   22188.78374058  .00003530  00000-0  36197-3 0  9995
2 39770  97.9442 305.8501 0008968  29.9614 330.2112 14.91069654440697
DTUSAT-2
1 40030U 14033W   22188.52425417  .00001216  00000-0  13185-3 0  9990
2 40030  97.9378 121.3730 0011597 356.0332   4.0791 14.90017276436634
EO-80
1 40032U 14033Y   22188.49686378  .00001406  00000-0  15170-3 0  9990
2 40032  97.9381 121.3590 0011605 357.0345   3.0802 14.89988209436609
HODOYOSHI-1
1 40299U 14070B   22188.46624624  .00003237  00000-0  12422-3 0  9990
2 40299  97.2422 256.0057 0013870  70.2145  57.9763 15.27085730426114
FIREBIRD FU3
1 40377U 15003B   22188.57432658  .00010040  00000-0  29884-3 0  9990
2 40377  99.0984  57.9793 0098448 317.6177  41.7482 15.30265831411496
FIREBIRD FU4
1 40378U 15003C   22188.46784596  .00009724  00000-0  28876-3 0  9997
2 40378  99.0989  58.0636 0098317 317.6086  41.7583 15.30361237411482
GRIFEX
1 40379U 15003D   22188.55157567  .00006459  00000-0  22869-3 0  9998
2 40379  99.1106  43.8649 0114880   0.4271 359.7038 15.23512554410699
XW-2A
1 40903U 15049E   22188.75762328  .00014972  00000-0  23090-3 0  9996
2 40903  97.1778 247.3278 0010488  55.2105  85.0964 15.54186030382412
XW-2C
1 40906U 15049H   22188.50167720  .00003120  00000-0  15114-3 0  9998
2 40906  97.4924 191.7550 0012063 292.3167 227.0691 15.19238209375963
XW-2D
1 40907U 15049J   22188.83831314  .00003583  00000-0  16980-3 0  9997
2 40907  97.4909 192.0866 0011259 286.0429 195.0756 15.19912215376062
LILACSAT-2
1 40908U 15049K   22188.82803536  .00001575  00000-0  85622-4 0  9991
2 40908  97.5167 189.2101 0013916 311.0003 170.4389 15.15886048375573
XW-2E
1 40909U 15049L   22188.83413286  .00005738  00000-0  24090-3 0  9998
2 40909  97.4641 196.6531 0009899 261.7682 222.5973 15.23814908376516
XW-2F
1 40910U 15049M   22188.83419247  .00005680  00000-0  24217-3 0  9990
2 40910  97.4721 195.7925 0010961 263.3186 218.6347 15.23286709376280
XW-2B
1 40911U 15049N   22188.79122285  .00003693  00000-0  17550-3 0  9993
2 40911  97.4906 192.6353 0011130 288.0390 150.0399 15.19799025375940
DCBB
1 40912U 15049P   22188.72489264  .00006525  00000-0  25302-3 0  9991
2 40912  97.4354 200.0320 0011219 224.3120 224.3853 15.26412984376842
TW-1A
1 40928U 15051D   22188.88346272  .00029896  00000-0  35458-3 0  9998
2 40928  97.0366 211.3744 0004653 323.0417 160.3755 15.61153980381420
IO-86
1 40931U 15052B   22188.50822261  .00000825  00000-0  25619-4 0  9999
2 40931   6.0026  26.0502 0012978  92.3143 267.8394 14.76825712366318
AO-85
1 40967U 15058D   22187.53966621  .00001038  00000-0  12459-3 0  4130
2 40967  64.7750  13.9550 0193199 194.2902 165.2696 14.77462108 63485
ATHENOXAT-1
1 41168U 15077C   22188.67304560  .00008680  00000-0  34223-3 0  9991
2 41168  14.9981 300.5262 0010248 169.6715 229.2307 15.21366019363395
ChubuSat-2
1 41338U 16012B   22188.54342138  .00001122  00000-0  78138-4 0  9997
2 41338  31.0023 255.9747 0013354 351.8458   8.1960 15.01437010350508
ChubuSat-3
1 41339U 16012C   22188.86760982  .00000975  00000-0  66972-4 0  9992
2 41339  31.0119 250.8376 0012986   1.7577 358.3112 15.01511296350553
Horyu-4
1 41340U 16012D   22188.48987334  .00001735  00000-0  11801-3 0  9999
2 41340  31.0031 231.1582 0013170  39.9035 320.2567 15.03412362350746
e-st@r-II
1 41459U 16025D   22188.71842812  .00009375  00000-0  40432-3 0  9991
2 41459  98.1883 355.3770 0144530 200.1063 159.4422 15.13758329340560
AAUSAT4
1 41460U 16025E   22188.42608129  .00015732  00000-0  59606-3 0  9999
2 41460  98.1798   1.4441 0124820 176.6338 183.5756 15.19924203340978
LO-87
1 41557U 16033B   22188.79117617  .00007679  00000-0  22778-3 0  9993
2 41557  97.3894 286.5286 0009265 308.5251 169.1540 15.35067041340507
NuSat2
1 41558U 16033C   22188.79367422  .00007337  00000-0  20505-3 0  9992
2 41558  97.4093 292.3450 0008597 295.9702 182.3535 15.36958950340774
Lapan A3
1 41603U 16040E   22188.51265744  .00000815  00000-0  39922-4 0  9993
2 41603  97.2042 224.6666 0014982  90.0127  41.9741 15.20715498335082
